CW8081 Thessaloniki GR current weather conditions

sailwx.info

Wind from 227 at 0 knots gusting 8

Air temperature 30.0° C
Dewpoint 20.0° C

Last reported at 2015-Jul-06 10:41 UTC.
Time now 2015-Jul-06 11:27 UTC

Location: N 40°34' E 022°58'.
View on Google Maps.

See reports from other nearby stations

  
Tides and Currents Weather Stations Pressure Air Temp Water Temp Dewpoint Dewpoint Depression Visibility Wind Speed Wind Dir Waves Ship Positions
date/time (UTC)wind fromknots sea level pressurealtimeterstation pressurevisibilityair tempwater tempwave heightnotes
2015-Jul-06 10:41 227 0 gusting 8 30.0
2015-Jul-06 10:31 224 6 gusting 10 30.0
2015-Jul-06 10:11 227 1 gusting 8 29.4
2015-Jul-06 10:01 216 6 gusting 11 28.3
2015-Jul-06 09:41 211 5 gusting 8 28.3
2015-Jul-06 09:31 221 6 gusting 11 27.8
2015-Jul-06 09:11 214 5 gusting 10 27.8
2015-Jul-06 09:01 234 6 gusting 10 27.8
2015-Jul-06 08:41 262 5 gusting 10 27.2
2015-Jul-06 08:31 253 5 gusting 10 27.8
2015-Jul-06 08:11 263 0 gusting 8 27.2
2015-Jul-06 08:01 304 4 gusting 7 27.2
2015-Jul-06 07:41 221 4 gusting 7 26.7
2015-Jul-06 07:31 265 1 gusting 6 26.1
2015-Jul-06 07:11 216 25.0
2015-Jul-06 07:01 242 25.0
2015-Jul-06 06:41 227 24.4
2015-Jul-06 06:31 190 24.4
2015-Jul-06 06:11 187 23.9
2015-Jul-06 06:01 169 23.3
2015-Jul-06 05:41 166 22.8
2015-Jul-06 05:31 166 22.8
2015-Jul-06 05:11 078 22.2
2015-Jul-06 05:01 071 22.2
2015-Jul-06 04:41 067 21.7
2015-Jul-06 04:31 067 21.7
2015-Jul-06 04:11 067 21.1
2015-Jul-06 04:01 067 21.1
2015-Jul-06 03:41 067 20.6
2015-Jul-06 03:31 067 20.6
2015-Jul-06 03:11 067 20.6
2015-Jul-06 03:01 067 20.6
2015-Jul-06 02:41 067 21.1
2015-Jul-06 02:31 067 21.1
2015-Jul-06 02:11 067 21.1
2015-Jul-06 02:01 067 21.1
2015-Jul-06 01:41 067 21.7
2015-Jul-06 01:31 067 21.7
2015-Jul-06 01:11 067 21.7
2015-Jul-06 01:01 067 21.7
2015-Jul-06 00:41 067 21.7
2015-Jul-06 00:31 067 21.7
2015-Jul-06 00:11 067 22.2
2015-Jul-06 00:01 067 22.2
2015-Jul-05 23:41 067 22.8
2015-Jul-05 23:31 067 22.8
2015-Jul-05 23:11 067 22.8
2015-Jul-05 23:01 067 22.8
2015-Jul-05 22:41 067 22.8
2015-Jul-05 22:31 067 22.8
2015-Jul-05 22:11 067 22.8
2015-Jul-05 22:01 067 22.8
2015-Jul-05 21:41 067 22.8
2015-Jul-05 21:31 067 22.8
2015-Jul-05 21:11 065 23.3
2015-Jul-05 21:01 064 23.3
2015-Jul-05 20:41 075 23.3
2015-Jul-05 20:31 140 23.3
2015-Jul-05 20:11 144 23.9
2015-Jul-05 20:01 144 23.9
2015-Jul-05 19:41 136 23.9
2015-Jul-05 19:31 142 23.9
2015-Jul-05 19:11 145 24.4
2015-Jul-05 19:01 148 2 gusting 7 24.4
2015-Jul-05 18:41 157 2 gusting 6 25.0
2015-Jul-05 18:31 156 0 gusting 7 25.6
2015-Jul-05 18:11 148 1 gusting 6 26.1
2015-Jul-05 18:01 153 26.1
2015-Jul-05 17:41 159 2 gusting 6 26.7
2015-Jul-05 17:31 180 2 gusting 10 27.2
2015-Jul-05 17:11 166 27.8
2015-Jul-05 17:01 156 5 gusting 7 28.3
2015-Jul-05 16:41 155 0 gusting 6 29.4
2015-Jul-05 16:31 148 29.4
2015-Jul-05 16:11 163 0 gusting 7 30.0
2015-Jul-05 16:01 165 30.0
2015-Jul-05 15:41 190 30.0
2015-Jul-05 15:31 224 5 gusting 10 30.0
2015-Jul-05 15:11 207 0 gusting 7 30.0
2015-Jul-05 15:01 186 30.0
2015-Jul-05 14:41 153 4 gusting 8 30.6
2015-Jul-05 14:31 217 6 gusting 10 30.6
2015-Jul-05 14:11 207 6 gusting 8 30.6
2015-Jul-05 14:01 234 5 gusting 11 30.6
2015-Jul-05 13:41 239 4 gusting 10 31.1
2015-Jul-05 13:31 259 31.1
2015-Jul-05 13:11 270 31.1
2015-Jul-05 13:01 212 31.1
2015-Jul-05 12:41 244 2 gusting 7 30.6
2015-Jul-05 12:31 219 30.0
2015-Jul-05 12:11 217 30.0
2015-Jul-05 12:01 221 5 gusting 10 29.4
2015-Jul-05 11:41 221 6 gusting 10 29.4
2015-Jul-05 11:31 212 4 gusting 8 29.4
2015-Jul-05 11:11 216 5 gusting 10 29.4
2015-Jul-05 11:01 249 6 gusting 8 28.9
2015-Jul-05 10:41 200 4 gusting 7 28.9
2015-Jul-05 10:31 237 5 gusting 7 28.3
2015-Jul-05 10:11 254 28.3
2015-Jul-05 10:01 241 28.3
2015-Jul-05 09:41 214 27.8
2015-Jul-05 09:31 234 27.8
2015-Jul-05 09:11 250 27.2
2015-Jul-05 09:01 244 27.2
2015-Jul-05 08:41 234 26.7
2015-Jul-05 08:31 233 25.6
2015-Jul-05 08:11 208 0 gusting 5 25.6
2015-Jul-05 08:01 232 25.0
2015-Jul-05 07:41 204 3 gusting 6 24.4
2015-Jul-05 07:31 223 2 gusting 6 23.9
2015-Jul-05 07:11 209 4 gusting 6 23.9
2015-Jul-05 07:01 201 4 gusting 6 23.3
2015-Jul-05 06:41 216 23.3
2015-Jul-05 06:31 219 22.8
2015-Jul-05 06:11 198 22.8
2015-Jul-05 06:01 215 22.8
2015-Jul-05 05:41 221 22.2
2015-Jul-05 05:31 221 2 gusting 6 21.7
2015-Jul-05 05:01 131 21.1
2015-Jul-05 04:41 130 20.6
2015-Jul-05 04:31 130 20.6
2015-Jul-05 04:11 130 20.0
2015-Jul-05 04:01 130 20.0
2015-Jul-05 03:41 131 19.4
2015-Jul-05 03:31 131 19.4
2015-Jul-05 03:11 131 19.4
2015-Jul-05 03:01 131 19.4
2015-Jul-05 02:41 130 20.0
2015-Jul-05 02:31 131 20.0
2015-Jul-05 02:11 130 20.0
2015-Jul-05 02:01 130 20.0
2015-Jul-05 01:41 131 20.0
2015-Jul-05 01:31 131 20.6
2015-Jul-05 01:11 131 20.6
2015-Jul-05 01:01 130 20.6
2015-Jul-05 00:41 130 20.6
2015-Jul-05 00:31 131 20.6
2015-Jul-05 00:11 131 21.1
2015-Jul-05 00:01 131 21.1
2015-Jul-04 23:41 131 21.7
2015-Jul-04 23:31 131 21.7
2015-Jul-04 23:11 131 21.7
2015-Jul-04 23:01 131 21.7
2015-Jul-04 22:41 131 22.2
2015-Jul-04 22:31 131 22.2
2015-Jul-04 22:11 131 22.2
2015-Jul-04 22:01 131 22.2
2015-Jul-04 21:41 131 22.8
2015-Jul-04 21:31 131 22.8
2015-Jul-04 21:11 130 22.8
2015-Jul-04 21:01 130 22.8
2015-Jul-04 20:41 153 22.8
2015-Jul-04 20:31 154 22.8
2015-Jul-04 20:11 154 23.3
2015-Jul-04 20:01 159 23.3
2015-Jul-04 19:41 159 23.3
2015-Jul-04 19:31 163 0 gusting 5 23.9
2015-Jul-04 19:11 134 1 gusting 6 24.4
2015-Jul-04 19:01 147 0 gusting 5 24.4
2015-Jul-04 18:41 151 25.0
2015-Jul-04 18:31 144 3 gusting 6 25.6
2015-Jul-04 18:11 148 4 gusting 6 26.1
2015-Jul-04 18:01 138 0 gusting 7 26.7
2015-Jul-04 17:41 155 27.2
2015-Jul-04 17:31 121 27.2
2015-Jul-04 17:11 205 27.8
2015-Jul-04 17:01 194 28.3
2015-Jul-04 16:41 148 28.3
2015-Jul-04 16:31 177 28.3
2015-Jul-04 16:11 189 28.9
2015-Jul-04 16:01 198 28.9
2015-Jul-04 15:41 171 29.4
2015-Jul-04 15:31 141 29.4
2015-Jul-04 15:11 171 30.0
2015-Jul-04 15:01 167 30.0
2015-Jul-04 14:41 189 30.0
2015-Jul-04 14:31 182 29.4
2015-Jul-04 14:11 150 30.0
2015-Jul-04 14:01 139 29.4
2015-Jul-04 13:41 135 29.4
2015-Jul-04 13:31 158 29.4
2015-Jul-04 13:11 153 28.9
2015-Jul-04 13:01 095 28.9
2015-Jul-04 12:41 125 28.3
2015-Jul-04 12:31 140 28.3
2015-Jul-04 12:11 178 27.8
2015-Jul-04 12:01 196 27.8
2015-Jul-04 11:41 263 27.8
2015-Jul-04 11:31 263 27.8
2015-Jul-04 11:11 248 27.8
2015-Jul-04 11:01 265 28.3